Visibility
15.0 15.0 15.0 12.3 15.0 15.0 15.0 15.0 15.0 15.0 15.0 15.0 15.0 15.0 15.0 15.0 15.0 15.0 15.0 15.0 15.0 15.0 15.0 15.0 15.0 15.0 15.0 15.0 15.0 15.0 9.4 3.5 2.2 4.4 14.2 15.0 15.0 15.0
15.0 13.7 15.0 8.5 10.7 12.8 13.5 15.0 15.0 15.0 15.0 15.0 15.0 15.0 15.0 15.0 15.0 15.0 15.0 15.0 15.0 15.0 15.0 15.0 15.0 15.0 15.0 15.0 15.0 15.0 9.1 6.9 6.3 11.7 11.5 13.3 15.0 15.0
15.0 10.6 0.3 14.9 10.4 14.8 15.0 15.0 15.0 15.0 15.0 15.0 14.2 15.0 15.0 15.0 15.0 15.0 15.0 15.0 15.0 15.0 15.0 15.0 15.0 15.0 15.0 15.0 15.0 15.0 15.0 4.5 13.7 15.0 15.0 9.9 12.1 15.0
14.9 14.9 14.2 15.0 15.0 14.7 15.0 15.0 15.0 15.0 15.0 15.0 15.0 15.0 15.0 15.0 15.0 15.0 15.0 15.0 15.0 15.0 15.0 15.0 15.0 15.0 15.0 15.0 15.0 15.0 15.0 12.1 0.4 4.8 13.5 6.3 10.9 15.0
0.1 10.7 15.0 15.0 15.0 6.4 11.4 14.6 15.0 13.6 13.5 15.0 15.0 15.0 15.0 15.0 15.0 15.0 15.0 15.0 15.0 15.0 15.0 14.8 15.0 15.0 15.0 15.0 15.0 15.0 15.0 12.6 0.1 0.1 0.3 0.4 9.8 15.0
0.0 6.9 13.9 15.0 15.0 15.0 15.0 12.7 15.0 14.1 15.0 12.8 15.0 14.3 15.0 15.0 15.0 15.0 15.0 15.0 15.0 15.0 15.0 15.0 15.0 15.0 15.0 15.0 15.0 15.0 15.0 15.0 0.1 0.1 0.1 0.1 0.5 15.0
0.0 3.0 0.8 15.0 15.0 14.8 15.0 14.7 15.0 15.0 13.0 14.9 15.0 15.0 15.0 15.0 15.0 15.0 15.0 15.0 15.0 15.0 15.0 15.0 15.0 15.0 15.0 15.0 15.0 15.0 15.0 15.0 0.1 0.0 0.1 0.1 0.1 0.4
0.1 0.0 6.2 15.0 15.0 15.0 15.0 15.0 14.1 9.9 15.0 15.0 15.0 15.0 15.0 15.0 15.0 11.9 15.0 15.0 15.0 15.0 15.0 15.0 15.0 15.0 15.0 15.0 15.0 15.0 15.0 15.0 0.4 0.1 0.1 0.1 0.1 0.1
0.1 2.0 15.0 5.8 15.0 15.0 15.0 15.0 15.0 15.0 15.0 14.3 10.2 15.0 15.0 15.0 15.0 15.0 15.0 15.0 15.0 15.0 15.0 15.0 15.0 15.0 15.0 13.6 0.6 14.1 15.0 15.0 0.5 0.0 0.1 0.1 0.0 0.0
7.8 0.1 10.6 7.6 15.0 15.0 15.0 15.0 15.0 15.0 15.0 14.9 15.0 15.0 15.0 15.0 15.0 15.0 15.0 15.0 15.0 10.9 8.7 14.9 15.0 15.0 15.0 15.0 0.0 0.2 6.5 15.0 0.1 0.1 0.0 0.0 0.0 0.0
0.0 15.0 15.0 5.9 15.0 15.0 15.0 15.0 14.8 15.0 15.0 12.7 15.0 15.0 15.0 15.0 2.6 15.0 15.0 15.0 15.0 14.3 9.8 15.0 15.0 15.0 15.0 15.0 15.0 12.4 0.1 0.1 0.1 0.1 0.1 0.1 0.0 0.0
5.9 13.2 8.8 3.4 13.7 15.0 15.0 15.0 15.0 14.9 12.4 14.2 15.0 15.0 10.5 2.3 13.7 7.4 14.9 15.0 15.0 15.0 14.3 15.0 15.0 13.9 15.0 13.9 15.0 15.0 15.0 0.0 0.0 0.1 0.1 0.0 0.0 0.1
10.4 15.0 15.0 0.1 0.1 2.1 15.0 12.6 9.2 12.5 15.0 15.0 15.0 15.0 15.0 15.0 15.0 15.0 12.5 15.0 15.0 15.0 10.0 8.8 15.0 15.0 2.4 0.0 0.1 0.1 9.1 0.0 0.1 0.1 0.1 0.1 0.1 1.4
2.2 0.1 0.1 7.2 15.0 15.0 15.0 15.0 15.0 15.0 14.4 15.0 15.0 15.0 15.0 15.0 11.0 15.0 15.0 15.0 15.0 8.9 10.5 11.0 12.6 15.0 15.0 0.1 0.0 0.1 0.1 0.1 0.1 0.1 0.1 0.1 0.2 4.1
0.0 0.0 6.7 15.0 15.0 5.6 15.0 10.8 14.7 12.2 14.9 15.0 12.8 1.0 0.0 14.3 15.0 15.0 15.0 15.0 14.9 15.0 15.0 15.0 9.5 14.7 15.0 13.9 0.0 0.0 0.1 0.1 0.1 0.1 0.1 0.1 0.0 0.1
0.1 3.6 15.0 12.6 12.7 3.0 2.2 15.0 11.8 13.7 15.0 14.0 8.4 15.0 15.0 15.0 0.1 13.7 0.2 12.6 1.5 0.0 0.1 0.1 15.0 12.6 12.6 10.1 9.2 0.0 0.1 0.0 0.1 0.1 0.1 0.1 0.1 2.9
0.1 0.3 13.4 11.4 15.0 15.0 14.8 12.2 12.8 15.0 12.5 11.3 12.5 15.0 15.0 15.0 0.0 0.1 0.1 0.1 0.0 0.0 0.0 0.0 0.1 0.3 0.0 0.0 0.0 0.0 0.0 0.0 0.0 0.1 0.2 0.1 0.1 0.1
3.5 11.7 9.6 15.0 15.0 13.8 15.0 14.7 12.1 15.0 15.0 15.0 15.0 15.0 14.0 15.0 0.1 0.0 0.2 0.1 0.0 0.0 0.0 0.0 0.1 0.0 0.0 0.0 0.0 0.0 0.0 0.0 0.0 0.0 0.1 0.1 0.0 0.1
15.0 15.0 15.0 15.0 15.0 15.0 15.0 15.0 15.0 15.0 15.0 15.0 14.2 14.9 15.0 15.0 4.8 7.8 0.0 0.0 0.0 0.0 0.0 0.0 0.0 0.1 0.0 0.0 0.0 0.1 0.0 0.0 0.0 0.0 0.0 0.0 0.0 0.1
15.0 15.0 15.0 15.0 15.0 15.0 15.0 15.0 15.0 15.0 15.0 14.4 11.9 15.0 15.0 15.0 15.0 12.0 0.1 0.0 0.0 0.0 0.0 0.0 0.0 0.0 0.0 0.0 0.0 0.0 0.1 0.0 0.0 0.0 0.1 0.2 0.5 5.9
15.0 15.0 15.0 15.0 15.0 15.0 15.0 15.0 15.0 15.0 7.6 15.0 15.0 15.0 0.0 1.0 0.1 7.0 2.1 0.0 0.0 0.1 0.0 0.0 0.1 0.5 13.2 6.7 0.0 0.0 0.1 5.2 10.7 7.8 7.6 3.2 1.5 0.1
15.0 15.0 15.0 15.0 15.0 15.0 15.0 15.0 15.0 15.0 12.9 12.0 15.0 2.2 0.0 0.1 0.1 0.1 0.1 0.1 0.1 0.1 0.0 0.1 2.0 15.0 12.7 0.4 0.1 0.1 0.1 0.1 3.4 9.2 8.6 4.9 11.6 0.1
14.8 15.0 15.0 15.0 15.0 15.0 15.0 15.0 15.0 14.4 15.0 15.0 15.0 15.0 0.0 0.0 0.1 0.2 0.1 0.2 0.2 0.1 0.1 0.1 0.1 11.6 15.0 15.0 9.6 0.1 0.0 0.1 0.1 0.2 0.1 14.6 15.0 12.9